Location: Caucaguita
(10.3578°N, 66.8025°W)
Time: 01:57:02
(UTC+00:00)

Centaur D-1AR AC-39 - Pass Details

Date: 18 November 2025
Orbit: 600 x 36157 km, 21.9° (Epoch: 09 December)

Event Time Altitude Azimuth Distance (km) Brightness Sun altitude
Rises 22:21:12 0° 229° (SW) 3,721 7.0 -5.4°
Reaches altitude 10° 22:24:35 10° 211° (SSW) 2,129 5.1 -6.2°
Maximum altitude 22:27:37 22° 156° (SSE) 1,326 3.2 -6.9°
Drops below altitude 10° 22:30:42 10° 102° (ESE) 2,152 3.8 -7.7°
Enters shadow 22:31:36 - 95° (E) 2,553 4.1 -7.9°
